TimeCDT,TemperatureF,Dew PointF,Humidity,Sea Level PressureIn,VisibilityMPH,Wind Direction,Wind SpeedMPH,Gust SpeedMPH,PrecipitationIn,Events,Conditions,WindDirDegrees,DateUTC
12:15 AM,64.4,55.4,73,29.91,7.0,Calm,Calm,-,N/A,,Clear,0,2013-06-11 05:15:00
12:35 AM,64.4,57.2,77,29.91,7.0,Calm,Calm,-,N/A,,Clear,0,2013-06-11 05:35:00
12:55 AM,64.4,55.4,73,29.92,10.0,Calm,Calm,-,N/A,,Clear,0,2013-06-11 05:55:00
1:15 AM,64.4,55.4,73,29.92,10.0,Calm,Calm,-,N/A,,Clear,0,2013-06-11 06:15:00
1:35 AM,62.6,55.4,77,29.93,7.0,Calm,Calm,-,N/A,,Clear,0,2013-06-11 06:35:00
1:55 AM,62.6,53.6,72,29.93,5.0,Calm,Calm,-,N/A,,Haze,0,2013-06-11 06:55:00
2:15 AM,62.6,53.6,72,29.93,5.0,Calm,Calm,-,N/A,,Haze,0,2013-06-11 07:15:00
2:35 AM,62.6,53.6,72,29.93,3.0,Calm,Calm,-,N/A,,Haze,0,2013-06-11 07:35:00
2:55 AM,60.8,53.6,77,29.93,5.0,Calm,Calm,-,N/A,,Haze,0,2013-06-11 07:55:00
3:15 AM,62.6,55.4,77,29.93,5.0,Calm,Calm,-,N/A,,Haze,0,2013-06-11 08:15:00
1:15 PM,86.0,69.8,58,29.83,10.0,ESE,10.4,-,N/A,,Clear,110,2013-06-11 18:15:00
1:35 PM,87.8,71.6,58,29.83,10.0,SSE,6.9,-,N/A,,Clear,150,2013-06-11 18:35:00
1:55 PM,87.8,68.0,52,29.83,10.0,SSW,6.9,-,N/A,,Clear,200,2013-06-11 18:55:00
2:15 PM,87.8,68.0,52,29.82,10.0,South,6.9,-,N/A,,Clear,190,2013-06-11 19:15:00
2:35 PM,89.6,69.8,52,29.83,10.0,SSW,12.7,-,N/A,,Clear,200,2013-06-11 19:35:00
2:55 PM,89.6,68.0,49,29.83,10.0,WSW,12.7,20.7,N/A,,Clear,240,2013-06-11 19:55:00
3:15 PM,89.6,68.0,49,29.82,10.0,WSW,9.2,-,N/A,,Clear,240,2013-06-11 20:15:00
3:35 PM,89.6,69.8,52,29.82,10.0,SW,8.1,-,N/A,,Clear,220,2013-06-11 20:35:00
3:55 PM,89.6,69.8,52,29.83,10.0,SW,6.9,-,N/A,,Clear,220,2013-06-11 20:55:00
4:15 PM,89.6,64.4,43,29.82,10.0,WSW,15.0,18.4,N/A,,Clear,240,2013-06-11 21:15:00
4:35 PM,91.4,64.4,41,29.84,10.0,West,13.8,18.4,N/A,,Clear,260,2013-06-11 21:35:00
4:55 PM,89.6,62.6,40,29.84,10.0,West,15.0,20.7,N/A,,Clear,260,2013-06-11 21:55:00
5:15 PM,89.6,64.4,43,29.83,10.0,SW,10.4,-,N/A,,Clear,230,2013-06-11 22:15:00
5:35 PM,87.8,64.4,46,29.83,10.0,WSW,10.4,-,N/A,,Clear,240,2013-06-11 22:35:00
5:55 PM,87.8,64.4,46,29.82,10.0,WSW,9.2,-,N/A,,Clear,240,2013-06-11 22:55:00
6:15 PM,87.8,64.4,46,29.82,10.0,WSW,8.1,-,N/A,,Clear,240,2013-06-11 23:15:00
6:35 PM,86.0,64.4,48,29.82,10.0,WSW,8.1,-,N/A,,Clear,240,2013-06-11 23:35:00
6:55 PM,84.2,66.2,55,29.81,10.0,SSW,3.5,-,N/A,,Clear,200,2013-06-11 23:55:00
7:15 PM,84.2,66.2,55,29.82,10.0,SW,3.5,-,N/A,,Clear,220,2013-06-12 00:15:00
7:35 PM,84.2,66.2,55,29.82,10.0,Calm,Calm,-,N/A,,Clear,0,2013-06-12 00:35:00
7:55 PM,82.4,68.0,62,29.82,10.0,Calm,Calm,-,N/A,,Clear,0,2013-06-12 00:55:00
8:15 PM,82.4,64.4,54,29.82,10.0,South,3.5,-,N/A,,Clear,170,2013-06-12 01:15:00
8:35 PM,80.6,66.2,61,29.83,10.0,SSW,4.6,-,N/A,,Clear,210,2013-06-12 01:35:00
8:55 PM,80.6,64.4,58,29.83,10.0,SSW,4.6,-,N/A,,Clear,200,2013-06-12 01:55:00
9:15 PM,80.6,66.2,61,29.84,10.0,SSW,4.6,-,N/A,,Clear,210,2013-06-12 02:15:00
9:35 PM,80.6,66.2,61,29.85,5.0,SSW,3.5,-,N/A,,Haze,210,2013-06-12 02:35:00
9:55 PM,78.8,66.2,65,29.85,10.0,SSW,3.5,-,N/A,,Clear,200,2013-06-12 02:55:00
10:15 PM,80.6,66.2,61,29.84,10.0,South,6.9,-,N/A,,Clear,170,2013-06-12 03:15:00
10:35 PM,82.4,66.2,58,29.80,10.0,South,9.2,16.1,N/A,,Clear,180,2013-06-12 03:35:00
10:55 PM,82.4,66.2,58,29.83,10.0,SSW,5.8,-,N/A,,Clear,200,2013-06-12 03:55:00
11:15 PM,82.4,66.2,58,29.82,10.0,SSE,5.8,-,N/A,,Clear,160,2013-06-12 04:15:00
11:35 PM,78.8,66.2,65,29.85,10.0,North,9.2,-,N/A,,Clear,10,2013-06-12 04:35:00
11:55 PM,78.8,66.2,65,29.86,10.0,Calm,Calm,-,N/A,,Clear,0,2013-06-12 04:55:00